EW7948 Weather Reports


time (UTC)temp
F
wind
direction
speed
knots
gust
knots
rain 1hr
in
rain 24hr
in
rain mn
in
humidity
%
barometer
mb
20260901101526 59 107 0.0 1.7 0.00 0.01 0.00 88 1012.5
20260901100019 59 107 0.0 1.7 0.00 0.01 0.00 89 1012.4
20260901094518 59 107 0.0 0.0 0.00 0.01 0.00 88 1012.6
20260901093017 59 107 0.0 0.0 0.00 0.01 0.00 88 1012.3
20260901091615 60 107 0.0 0.0 0.00 0.01 0.00 87 1012.3
20260901090013 60 107 0.0 0.0 0.00 0.01 0.00 87 1012.5
20260901084507 60 107 0.0 0.9 0.00 0.01 0.00 86 1012.2
20260901083006 61 107 0.0 1.7 0.00 0.01 0.00 85 1012.2
20260901081505 61 110 0.0 0.9 0.00 0.01 0.00 84 1012.3
20260901080005 61 110 0.0 2.6 0.00 0.01 0.00 84 1012.1
20260901074502 61 110 0.0 0.0 0.00 0.01 0.00 85 1012.5
20260901073100 61 110 0.0 0.0 0.00 0.01 0.00 85 1012.4
20260901071559 61 110 0.0 2.6 0.00 0.01 0.00 85 1012.2
20260901064555 62 110 0.9 3.5 0.00 0.01 0.00 86 1012.4
20260901063055 62 109 3.5 7.0 0.00 0.01 0.00 85 1012.5
20260901061551 62 113 1.7 6.1 0.00 0.01 0.00 84 1012.7
20260901060049 63 120 0.0 5.2 0.00 0.01 0.00 83 1013.0
20260901054549 63 184 0.0 0.0 0.00 0.01 0.01 82 1013.1
20260901053053 63 184 0.0 2.6 0.00 0.01 0.01 81 1013.1
20260901051549 63 180 1.7 6.1 0.00 0.01 0.01 82 1013.2
20260901050047 63 207 3.5 8.7 0.00 0.01 0.01 82 1012.9
20260901044602 63 212 4.3 7.8 0.00 0.01 0.01 81 1012.9
20260901043046 63 173 3.5 6.1 0.00 0.01 0.01 81 1012.6
20260901041544 64 172 0.0 2.6 0.00 0.01 0.01 81 1012.4
20260901040044 64 171 0.9 5.2 0.00 0.01 0.01 81 1012.2
20260901034543 64 116 0.0 0.9 0.00 0.01 0.01 79 1011.9
20260901033043 64 115 2.6 5.2 0.00 0.01 0.01 78 1011.7
20260901031543 64 317 0.0 0.9 0.00 0.01 0.01 77 1011.7
20260901030050 64 318 0.0 0.9 0.00 0.01 0.01 76 1011.4
20260901024504 65 258 0.9 2.6 0.00 0.01 0.01 77 1011.7
20260901023001 65 252 0.0 0.9 0.00 0.01 0.01 75 1011.6
20260901021501 66 251 0.0 1.7 0.00 0.01 0.01 73 1011.8
20260901020002 67 269 2.6 9.6 0.00 0.01 0.01 70 1012.1
20260901014501 70 248 8.7 14.8 0.00 0.01 0.01 66 1011.9
20260901013101 72 320 0.0 0.9 0.00 0.01 0.01 65 1011.7
20260901011606 72 320 0.0 0.9 0.00 0.01 0.01 62 1011.5
20260901010059 72 320 0.0 1.7 0.00 0.01 0.01 61 1011.8
20260901004604 73 319 0.9 3.5 0.00 0.01 0.01 60 1012.0
20260901003102 73 317 0.0 0.0 0.00 0.01 0.01 60 1012.2
20260901001557 73 318 0.0 0.9 0.00 0.01 0.01 58 1012.2
20260901000057 73 317 0.0 4.3 0.00 0.01 0.01 59 1012.3
20260831234556 73 355 0.9 7.0 0.00 0.01 0.01 59 1012.4
20260831233054 73 340 0.0 4.3 0.00 0.01 0.01 60 1012.3
20260831231559 73 324 3.5 7.0 0.00 0.01 0.01 62 1012.4
20260831230053 73 5 3.5 7.0 0.00 0.01 0.01 62 1012.2
20260831224551 73 342 2.6 7.8 0.00 0.02 0.01 61 1012.2
20260831223050 73 9 3.5 7.0 0.00 0.02 0.01 62 1012.1
20260831221548 72 347 2.6 7.0 0.00 0.02 0.01 63 1012.2
20260831220048 73 337 3.5 7.0 0.00 0.02 0.01 62 1012.7
20260831214617 73 330 0.9 3.5 0.00 0.26 0.01 62 1012.8
20260831213026 72 350 2.6 4.3 0.00 0.26 0.01 61 1012.6
20260831211516 73 326 0.9 3.5 0.00 0.26 0.01 63 1012.8
20260831210028 72 74 0.9 4.3 0.00 0.26 0.01 64 1013.1
20260831204514 71 82 1.7 3.5 0.00 0.26 0.01 64 1013.5
20260831203024 71 74 1.7 7.0 0.00 0.26 0.01 67 1013.6
20260831201530 71 104 3.5 7.8 0.00 0.26 0.01 69 1013.6
20260831200036 70 63 4.3 7.8 0.00 0.26 0.01 68 1013.8
20260831194522 71 51 2.6 5.2 0.00 0.26 0.01 68 1014.1
20260831193021 71 109 3.5 7.8 0.00 0.26 0.01 68 1014.5
20260831191524 71 136 0.0 2.6 0.00 0.26 0.01 70 1015.1
20260831190021 70 136 0.0 2.6 0.00 0.26 0.01 68 1015.5
20260831184519 69 142 0.0 3.5 0.00 0.26 0.01 71 1015.8
20260831183012 69 170 0.0 2.6 0.00 0.26 0.01 71 1016.2
20260831181511 68 170 0.0 3.5 0.00 0.26 0.01 71 1016.3
20260831180006 67 175 0.0 0.9 0.00 0.26 0.01 75 1016.3
20260831174505 67 175 0.0 0.9 0.00 0.26 0.01 75 1016.3
20260831173003 66 175 0.0 0.0 0.00 0.26 0.01 78 1016.2
20260831171559 66 175 0.0 1.7 0.00 0.26 0.01 81 1015.9
20260831170056 65 175 0.9 4.3 0.00 0.26 0.01 81 1015.6
20260831164604 64 93 0.0 2.6 0.00 0.26 0.01 83 1015.4
20260831163050 63 88 0.0 2.6 0.00 0.26 0.01 84 1015.1
20260831161549 62 85 0.0 1.7 0.00 0.26 0.01 86 1014.8
20260831160047 62 84 0.0 1.7 0.00 0.26 0.01 88 1014.6
20260831154545 61 78 0.0 0.9 0.00 0.30 0.01 90 1014.3
20260831153043 60 77 0.0 0.0 0.00 0.30 0.01 91 1014.1
20260831151540 60 77 0.0 0.0 0.00 0.30 0.01 91 1013.7
20260831150033 59 77 0.0 0.9 0.00 0.30 0.01 91 1013.4
20260831144533 59 77 0.9 2.6 0.00 0.30 0.01 91 1013.2
20260831141528 59 78 0.0 1.7 0.00 0.30 0.01 91 1013.1
20260831140105 59 79 0.0 0.9 0.00 0.30 0.01 91 1013.1
20260831134514 59 79 0.0 0.0 0.00 0.30 0.01 91 1012.9
20260831133029 59 79 0.0 0.9 0.00 0.30 0.01 91 1012.9
20260831131520 59 79 0.0 1.7 0.00 0.30 0.01 91 1012.6
20260831130011 59 79 0.0 0.0 0.01 0.30 0.01 91 1012.2
20260831124505 59 79 0.0 1.7 0.01 0.46 0.01 91 1012.0
20260831123004 58 51 0.0 0.0 0.01 0.46 0.01 91 1011.9
20260831121504 58 51 0.0 0.9 0.01 0.46 0.01 91 1011.7
20260831120003 58 50 0.0 0.9 0.00 0.45 0.00 90 1011.7
20260831114502 58 50 0.0 0.0 0.00 0.45 0.00 90 1011.6
20260831113000 58 50 0.0 0.0 0.00 0.45 0.00 90 1011.7
20260831111600 58 50 0.0 0.0 0.00 0.45 0.00 90 1011.6
20260831110058 59 50 0.0 0.9 0.00 0.45 0.00 90 1011.5
20260831104557 59 50 0.0 0.9 0.00 0.45 0.00 90 1011.7
20260831103103 59 50 0.0 0.0 0.00 0.45 0.00 89 1011.7